"Pseudo-MPEC" for 0bh2001

Created 2020 Nov 30 17:07:02 UT using Find_Orb

Click here for an explanation of pseudo-MPECs

 
 Astrometry: 
     0bh2001  C2020 11 19.60492711 56 47.11 -01 17 56.9    ~BK4M 22.8 rVNEOCP568
     0bh2001  C2020 11 19.61893411 56 49.04 -01 18 17.2    ~BK4M 23.0 rVNEOCP568
     0bh2001  C2020 11 19.62829011 56 50.38 -01 18 30.7    ~BK4M 23.4 rVNEOCP568
     0bh2001  C2020 11 19.63296611 56 50.97 -01 18 37.9    ~BK4M 22.7 rVNEOCP568
     0bh2001  C2020 11 19.64231811 56 52.26 -01 18 51.1    ~BK4M 22.7 rVNEOCP568
     0bh2001  C2020 11 19.64699311 56 52.89 -01 18 58.2    ~BK4M 22.7 rVNEOCP568
     0bh2001  C2020 11 19.65633411 56 54.17 -01 19 11.6    ~BK4M 23.0 rVNEOCP568

Station data:
(568) Mauna Kea  (N19.826116 W155.472200)  US/Hawaii.

Orbital elements:  0bh2001
   Perihelion 2020 Oct 15.953113 +/- 67.7 TT = 22:52:28 (JD 2459138.453113)
Epoch 2020 Nov 20.0 TT = JDT 2459173.5   Earth MOID: 0.4750   AutoNEOCP
M  13.10406212 +/- 90               (J2000 ecliptic)
n   0.37390088 +/- 0.703            Peri.  165.35435 +/- 110
a   1.90823440 +/- 2.39             Node   318.77495 +/- 49
e   0.2368442 +/- 0.23              Incl.   15.35813 +/- 70
P   2.64/962.80d           H 19.7   G  0.15   U 12.5  SR
q 1.45627998 +/- 0.441    Q 2.36018881 +/- 3.22
From 7 observations 2020 Nov. 19 (74.0 min); mean residual 0".23
Residuals in arcseconds: 
201119 568  .22-  .03-    201119 568  .08-  .24-    201119 568  .14-  .05+    
201119 568  .14-  .05+    201119 568  .03+  .16+    
201119 568  .69+  .16+    201119 568  .14-  .14-    

Ephemerides (geocentric):
Date (UTC) HH   RA              Dec         delta   r     elong  mag " sig PA
---- -- -- --  -------------   -----------  ------ ------ -----  --- ---- ---
2020 11 30 17  12 22 00.405   -05 46 47.13  1.6851 1.4899  61.4 23.2  47d   1
2020 11 30 18  12 22 05.995   -05 47 47.52  1.6849 1.4900  61.4 23.2  47d   1
2020 11 30 19  12 22 11.585   -05 48 47.90  1.6846 1.4900  61.4 23.2  47d   1
2020 11 30 20  12 22 17.174   -05 49 48.29  1.6844 1.4901  61.4 23.2  47d   1
2020 11 30 21  12 22 22.762   -05 50 48.67  1.6842 1.4901  61.4 23.2  47d   1
2020 11 30 22  12 22 28.350   -05 51 49.05  1.6840 1.4902  61.4 23.2  48d   1
2020 11 30 23  12 22 33.937   -05 52 49.43  1.6837 1.4903  61.5 23.2  48d   1
2020 12 01 00  12 22 39.523   -05 53 49.81  1.6835 1.4903  61.5 23.2  48d   1
2020 12 01 01  12 22 45.109   -05 54 50.19  1.6833 1.4904  61.5 23.2  48d   1
2020 12 01 02  12 22 50.694   -05 55 50.56  1.6830 1.4904  61.5 23.2  48d   1
2020 12 01 03  12 22 56.278   -05 56 50.93  1.6828 1.4905  61.5 23.2  48d   1
2020 12 01 04  12 23 01.862   -05 57 51.31  1.6826 1.4906  61.5 23.2  48d   1
2020 12 01 05  12 23 07.445   -05 58 51.67  1.6824 1.4906  61.5 23.2  48d   1
2020 12 01 06  12 23 13.027   -05 59 52.04  1.6821 1.4907  61.6 23.2  48d   1
2020 12 01 07  12 23 18.609   -06 00 52.40  1.6819 1.4907  61.6 23.2  48d   1
2020 12 01 08  12 23 24.190   -06 01 52.77  1.6817 1.4908  61.6 23.2  48d   1
2020 12 01 09  12 23 29.771   -06 02 53.13  1.6814 1.4909  61.6 23.2  48d   1
2020 12 01 10  12 23 35.351   -06 03 53.49  1.6812 1.4909  61.6 23.2  49d   1
2020 12 01 11  12 23 40.930   -06 04 53.84  1.6810 1.4910  61.6 23.2  49d   1
2020 12 01 12  12 23 46.509   -06 05 54.20  1.6808 1.4910  61.6 23.2  49d   1
2020 12 01 13  12 23 52.087   -06 06 54.55  1.6805 1.4911  61.7 23.2  49d   1
2020 12 01 14  12 23 57.664   -06 07 54.90  1.6803 1.4912  61.7 23.2  49d   1
2020 12 01 15  12 24 03.240   -06 08 55.25  1.6801 1.4912  61.7 23.2  49d   1
2020 12 01 16  12 24 08.816   -06 09 55.60  1.6798 1.4913  61.7 23.2  49d   1
2020 12 01 17  12 24 14.392   -06 10 55.94  1.6796 1.4913  61.7 23.2  49d   1
2020 12 01 18  12 24 19.967   -06 11 56.28  1.6794 1.4914  61.7 23.2  49d   1
2020 12 01 19  12 24 25.541   -06 12 56.63  1.6792 1.4915  61.8 23.2  49d   1
2020 12 01 20  12 24 31.114   -06 13 56.96  1.6789 1.4915  61.8 23.2  49d   1
2020 12 01 21  12 24 36.687   -06 14 57.30  1.6787 1.4916  61.8 23.2  49d   1
2020 12 01 22  12 24 42.259   -06 15 57.64  1.6785 1.4917  61.8 23.2  49d   1
2020 12 01 23  12 24 47.831   -06 16 57.97  1.6782 1.4917  61.8 23.2  50d   1
2020 12 02 00  12 24 53.401   -06 17 58.30  1.6780 1.4918  61.8 23.2  50d   1
2020 12 02 01  12 24 58.972   -06 18 58.63  1.6778 1.4918  61.8 23.2  50d   1
2020 12 02 02  12 25 04.541   -06 19 58.95  1.6776 1.4919  61.9 23.2  50d   1
2020 12 02 03  12 25 10.110   -06 20 59.28  1.6773 1.4920  61.9 23.2  50d   1
2020 12 02 04  12 25 15.678   -06 21 59.60  1.6771 1.4920  61.9 23.2  50d   1
2020 12 02 05  12 25 21.246   -06 22 59.92  1.6769 1.4921  61.9 23.2  50d   1
2020 12 02 06  12 25 26.813   -06 24 00.24  1.6766 1.4921  61.9 23.2  50d   1
2020 12 02 07  12 25 32.379   -06 25 00.55  1.6764 1.4922  61.9 23.2  50d   1
2020 12 02 08  12 25 37.945   -06 26 00.87  1.6762 1.4923  61.9 23.2  50d   1
2020 12 02 09  12 25 43.510   -06 27 01.18  1.6760 1.4923  62.0 23.2  50d   1
2020 12 02 10  12 25 49.075   -06 28 01.49  1.6757 1.4924  62.0 23.2  50d   1
2020 12 02 11  12 25 54.638   -06 29 01.79  1.6755 1.4924  62.0 23.1  50d   1
2020 12 02 12  12 26 00.202   -06 30 02.10  1.6753 1.4925  62.0 23.1  50d   1
2020 12 02 13  12 26 05.764   -06 31 02.40  1.6750 1.4926  62.0 23.1  50d   1
2020 12 02 14  12 26 11.326   -06 32 02.70  1.6748 1.4926  62.0 23.1  51d   1
2020 12 02 15  12 26 16.887   -06 33 03.00  1.6746 1.4927  62.0 23.1  51d   1
2020 12 02 16  12 26 22.448   -06 34 03.30  1.6744 1.4928  62.1 23.1  51d   1